Simultaneous Nadir Overpasses (SNOs) Predictions

Prediction of SNOs between TERRA and METOP-C Satellite Orbit:

Table of predicted SNOs for the next 14.0 days since TLE Epoch: 12/9/2023
Index Date (TERRA) Time (TERRA) Lat,Lon (TERRA) SZA (TERRA ) Date (METOP-C) Time (METOP-C) Lat,Lon (METOP-C) SZA (METOP-C ) Distance(km) Time Diff (sec)
1 12/11/2023 04:00:33 80.14, 143.54 103.96 12/11/2023 04:00:08 80.14, 143.63 103.96 1.72 25
2 12/11/2023 04:49:52 -80.24, -47.99 75.90 12/11/2023 04:50:46 -80.22, -48.13 75.90 2.80 54
3 12/13/2023 19:21:26 -80.12, 93.12 75.90 12/13/2023 19:21:07 -80.12, 93.15 75.90 0.66 19
4 12/13/2023 20:10:44 80.25, -98.12 104.30 12/13/2023 20:11:43 80.25, -98.06 104.32 1.16 59
5 12/16/2023 10:42:18 80.12, 42.87 104.22 12/16/2023 10:42:05 80.12, 42.88 104.22 0.26 13
6 12/16/2023 11:31:36 -80.25,-148.38 75.59 12/16/2023 11:32:41 -80.25,-148.31 75.56 1.29 65
7 12/19/2023 02:03:10 -80.11, -7.49 75.74 12/19/2023 02:03:03 -80.11, -7.43 75.73 1.46 7
8 12/19/2023 02:52:28 80.23, 161.26 104.46 12/19/2023 02:53:39 80.25, 161.40 104.50 3.03 71



Historial Predications of SNOs between TERRA and METOP-C
